Weather Roundup
Issued by NWS Corpus Christi, TX

Home | Current Version | Previous Version | Text Only | Print | Product List | Glossary On
Versions: 1 2 3 4 5 6 7 8 9 10 11 12 13 14 15 16 17 18 19 20 21 22 23 24 25 26 27 28 29 30 31 32 33 34 35 36 37 38 39 40 41 42 43 44 45 46 47 48 49 50
000
ASUS44 KCRP 250910
HRRCRP

SOUTH TEXAS REGIONAL WEATHER ROUNDUP
NATIONAL WEATHER SERVICE CORPUS CHRISTI TX
400 AM CDT SUN JUN 25 2017


TXZ229>244-251000-
...CORPUS CHRISTI AREA OBSERVATIONS...

CITY           SKY/WX    TMP DP  RH WIND       PRES   REMARKS
CORPUS CHRISTI CLOUDY    79  74  84 NE6       30.04R
NAS CORPUS CHR CLOUDY    82  76  81 E10       30.03S
ROCKPORT       CLOUDY    78  70  76 NE10      30.05S
KINGSVILLE NAS CLEAR     77  77 100 NE7       30.03S
ALICE          CLOUDY    75  73  93 NE8       30.03F
ORANGE GROVE   MOCLDY    76  75  97 NE8       30.06S
FALFURRIAS     CLEAR     77  75  95 N3        30.03R
$$

...VICTORIA AREA OBSERVATIONS...

CITY           SKY/WX    TMP DP  RH WIND       PRES   REMARKS
VICTORIA       CLOUDY    75  71  87 E6        30.09R
BEEVILLE       MOCLDY   N/A N/A N/A NE7       30.06F
PLEASANTON     PTCLDY    73  70  91 NE6       30.10S
SAN ANTONIO    CLOUDY    74  68  81 N5        30.12S
$$

...LAREDO AREA OBSERVATIONS...

CITY           SKY/WX    TMP DP  RH WIND       PRES   REMARKS
LAREDO         PTCLDY    78  73  84 E9        30.05R
COTULLA        CLEAR     76  70  82 E12       30.07S
DEL RIO        CLOUDY    74  69  85 CALM      30.11S
MCALLEN        CLEAR     80  70  71 SW3       30.01S
HEBBRONVILLE   CLOUDY    75  74  95 CALM      30.06S FOG
$$

...OTHER TEXAS OBSERVATIONS...

CITY           SKY/WX    TMP DP  RH WIND       PRES   REMARKS
BROWNSVILLE    CLOUDY    80  75  84 CALM      30.00S
HOUSTON        HVY RAIN  77  75  93 SE7       30.08F FOG
COL. STATION   CLOUDY    75  73  93 NE6       30.10F
AUSTIN         CLOUDY    76  72  87 NE8       30.12S
WACO           CLOUDY    73  71  93 N7        30.14S
FORT WORTH     CLOUDY    73  66  78 NE7       30.16F
WICHITA FALLS  CLEAR     66  59  78 NE5       30.22R
LUBBOCK        CLOUDY    68  63  84 SE15      30.27S
EL PASO        CLOUDY    73  62  68 SE9       30.17F
$$

...MARINE OBSERVATIONS...

STATION/POSITION TIME  SKY/WX   TEMP    WIND        PRES    VSBY  WAVE   SWELL
                                AIR SEA DIR/SP/G                  HT/PER HT/PER
                 (UTC)          (F)     (DEG/KT/KT) (MB)    (MI)  (FT/S) (FT/S)
PORT ARANSAS     0900            82 86   80/ 11/ 12 1017.0F
BUOY 90 E PORT A 0750            83 84   90/ 10/ 10 1017.4          4/ 7   3/ 7
BUOY 45 SE BAFFI 0750            83      90/  8/ 12 1015.7          4/ 7   3/ 7
BUOY 200 E PT IS 0750            83 83  130/ 14/ 16 1016.6          4/ 7   3/ 7
BUOY 15 E GALVES 0750            81 84   90/  6/ 10 1018.7          3/ 7   2/ 7
$$




USA.gov is the U.S. government's official web portal to all federal, state and local government web resources and services.